Regional Weather Roundup
Issued by NWS

Home | Current Version | Previous Version | Text Only | Print | Product List | Glossary On
Versions: 1 2 3 4 5 6 7 8 9 10 11 12 13 14 15 16 17 18 19 20 21 22 23 24 25 26 27 28 29 30 31 32 33 34 35 36 37 38 39 40 41 42 43 44 45 46 47 48 49 50
548
ASUS44 KLUB 240210
RWRTX
WEST TEXAS WEATHER ROUNDUP
NATIONAL WEATHER SERVICE LUBBOCK TX
800 PM CST MON JAN 23 2017

NOTE: "FAIR" INDICATES FEW OR NO CLOUDS BELOW 12,000 FEET WITH NO
SIGNIFICANT WEATHER AND/OR OBSTRUCTIONS TO VISIBILITY.

TXZ004-006>008-010-012-014-016-OKZ002-240300-
TEXAS PANHANDLE/OKLAHOMA PANHANDLE

CITY           SKY/WX    TMP DP  RH WIND       PRES   REMARKS
AMARILLO       CLEAR     52  33  48 S10       29.68S
BORGER         CLEAR     58  33  39 SW14G22   29.62F
CANADIAN       CLEAR     48  36  63 SW7       29.61F
DALHART        CLEAR     42  28  57 S13       29.64F
DUMAS          CLEAR     50  31  49 SW12      29.64F
GUYMON         CLEAR     51  30  44 SW13      29.57S
HEREFORD       CLEAR     55  33  44 SW8       29.71S
PAMPA          CLEAR     52  37  57 SW14      29.64F
PERRYTON       CLEAR     53  40  62 SW10      29.58F
$$

TXZ026-029-035-045-048-240300-
SOUTHERN PANHANDLE/SOUTH PLAINS/ROLLING PLAINS

CITY           SKY/WX    TMP DP  RH WIND       PRES   REMARKS
CHILDRESS      CLEAR     56  37  49 S10       29.67S
SEMINOLE       CLEAR     57  28  32 W8        29.77F
LUBBOCK        CLEAR     63  25  23 SW17      29.73S
PLAINVIEW      CLEAR     54  31  40 SW12      29.72S
SNYDER         CLEAR     56  33  42 S8        29.77S
$$

TXZ052-054-060>062-072-078-127-140-154-169-240300-
PERMIAN BASIN/CONCHO VALLEY/BIG COUNTRY/EDWARDS PLATEAU

CITY           SKY/WX    TMP DP  RH WIND       PRES   REMARKS
ABILENE        CLEAR     56  37  49 S9        29.77S
BIG SPRING     CLEAR     56  37  47 SE10      29.79F
BROWNWOOD      PTCLDY    61  37  41 S6        29.80R
JUNCTION       CLEAR     61  36  39 VRB3      29.84R
MIDLAND        CLEAR     58  31  35 S8        29.77F
ODESSA         CLEAR     60  28  29 S9        29.78F
SAN ANGELO     CLEAR     59  37  44 S7        29.79S
SONORA         CLEAR     61  36  39 S9        29.88R
SWEETWATER     CLEAR     61  31  32 S12       29.79F
WINK           CLEAR     61  28  28 SW8       29.75S
$$

TXZ055-058-074-075-080-082-240300-
FAR WEST/SOUTHWEST MOUNTAINS/TRANS PECOS

CITY           SKY/WX    TMP DP  RH WIND       PRES   REMARKS
ALPINE         CLEAR     60  29  30 SW7       29.91S
DRYDEN           N/A     61  33  35 NE7       29.80S
EL PASO        CLEAR     59  27  29 S10       29.79R
FORT STOCKTON  CLEAR     67  31  26 S14       29.79S
GUADALUPE PASS CLEAR     54  22  28 W15       29.87F
MARFA          CLEAR     49  31  49 E3        29.89S
PECOS          CLEAR     66  30  25 CALM      29.77R
$$

TXZ014-016-019-021>030-083-240300
TEXAS TECH WEST TEXAS MESONET/TEXAS PANHANDLE/NORTHERN SOUTH PLAINS

CITY           SKY/WX    TMP DP  RH WIND       PRES   REMARKS
ABERNATHY 5ENE   N/A     58  29  32 SW16      29.74F
AMARILLO 9NNE    N/A     45  33  61 S8        29.66F
AMARILLO 7SSE    N/A     51  32  48 S9        29.69S
AMHERST 1NE      N/A     56  28  34 S14       29.73S
BOOTLEG 11WNW    N/A     45  26  46 SW15      29.73S
CANADIAN 6E      N/A     54  36  50 S9        29.60S
CAPROCK CYN SP   N/A     60  32  34 SW14      29.70R
CHILDRESS 2NNE   N/A     59  36  42 S12       29.66S
CLARENDON 2WSW   N/A     49  33  52 S9        29.67S
CLAUDE 12SW      N/A     56  31  39 S6        29.69S
DIMMITT 2NE      N/A     53  30  40 S15       29.71S
FLOYDADA 2NNE    N/A     56  27  32 S16       29.72F
FRIONA 2NE       N/A     49  30  48 SW12      29.72S
GOODLETT 3W      N/A     54  37  53 S9        29.66S
HART 3N          N/A     51  32  49 S13       29.72S
HEREFORD 2NW     N/A     51  31  44 SW6       29.70S
MCLEAN 1E        N/A     57  32  38 S6        29.65S
MEMPHIS 1NE      N/A     51  39  63 CALM      29.66S
MULESHOE 2SSW    N/A     55  29  36 S14       29.73S
OLTON 6S         N/A     47  29  50 S9        29.73S
PALO DURO SP     N/A     59  31  34 S10       29.70S
PAMPA 2E         N/A     48  37  64 S9        29.64F
PLAINVIEW 1S     N/A     56  32  40 S12       29.72S
SILVERTON 7ESE   N/A     49  31  50 S9        29.71S
TULIA 2ENE       N/A     52  35  54 S13       29.71S
TURKEY 2WSW      N/A     58  36  43 SW15      29.67S
$$

TXZ033>036-039>041-045>048-240300
TEXAS TECH WEST TEXAS MESONET/SOUTH PLAINS

CITY           SKY/WX    TMP DP  RH WIND       PRES   REMARKS
AIKEN 3WSW       N/A     51  32  47 SW9       29.74S
ANDREWS 2NE      N/A     56  24  28 S5        29.77F
ANTON 6SSW       N/A     58  30  34 S15       29.74F
BROWNFIELD 2S    N/A     53  28  37 SW8       29.76F
DENVR CTY 7WNW   N/A     52  25  35 S7        29.76F
GAIL 2ESE        N/A     54  32  43 S9        29.75F
LAMESA 2SE       N/A     50  34  53 S7        29.77F
LUBBOCK 3WNW     N/A     62  25  24 SW13      29.75S
MORTON 1ENE      N/A     59  27  30 S17       29.75S
ODONNELL 1N      N/A     52  28  40 S6        29.76F
PLAINS 3N        N/A     51  27  39 S10       29.77S
RALLS 1SE        N/A     54  31  41 SW12      29.74F
REESE CENTER     N/A     57  25  29 SW14      29.75S
SEAGRAVES 1SW    N/A     52  26  36 SW6       29.76F
SEMINOLE 2NNE    N/A     58  26  29 SW7       29.76F
SLATON 2NE       N/A     55  28  35 SW12      29.75F
SNYDER 3E        N/A     59  32  36 SE6       29.76S
SUNDOWN 8SW      N/A     49  28  42 SW9       29.76F
TAHOKA 3NNE      N/A     53  26  36 SW9       29.76S
WOLFFORTH 6SSW   N/A     54  27  35 SW8       29.76S
$$

TXZ031-032-036>038-042>044-240300-
TEXAS TECH WEST TEXAS MESONET/ROLLING PLAINS

CITY           SKY/WX    TMP DP  RH WIND       PRES   REMARKS
ASPERMONT 3NE    N/A     57  33  40 S10       29.72F
FLUVANNA 3WNW    N/A     56  31  38 S10       29.76S
GRAHAM 5SSW      N/A     60  27  28 SW13      29.75F
GUTHRIE 10WSW    N/A     59  29  32 S9        29.71S
HASKELL 1NW      N/A     56  38  50 S7        29.72S
JAYTON 1SSE      N/A     58  29  33 S7        29.73S
LK A HENRY 1NW   N/A     56  29  36 S6        29.74S
NORTHFIELD 1S    N/A     60  36  40 S12       29.68R
ODELL 4ENE       N/A     58  39  49 SE13      29.68S
PADUCAH 10SW     N/A     56  33  42 SW13      29.69S
POST 1NE         N/A     60  28  30 SW10      29.74S
RRING SPRGS 3N   N/A     59  31  34 SW13      29.70F
SEYMOUR 3NW      N/A     56  38  50 SE8       29.70S
SPUR 1W          N/A     54  25  33 SW6       29.72S
WEINERT 2NNE     N/A     57  40  53 S13       29.71F
WHITE RVR 6NE    N/A     55  28  35 SW10      29.73S
$$

TXZ052-054-060>062-072-078-127-140-154-169-240300-
TEXAS TECH WEST TEXAS MESONET/PERMIAN BASIN/
CONCHO VALLEY/BIG COUNTRY/EDWARDS PLATEAU

CITY           SKY/WX    TMP DP  RH WIND       PRES   REMARKS
COYANOSA 2N      N/A     61  33  34 SE7       29.77S
JUNCTION 1SSW    N/A     60  36  40 SW5       29.85R
MERTZON 3NNE     N/A     56  37  48 S9        29.81S
SAN ANGELO 7NW   N/A     59  34  39 S5        29.79S
STRLNG CT 4WSW   N/A     52  34  50 S2        29.80S
ST LAWRNCE 5SW   N/A     56  37  48 SE9       29.79S
SWEETWATR 11SW   N/A     56  33  41 S6        29.79S
WALL 1E          N/A     58  37  44 CALM      29.81S
$$

TXZ055-058-074-075-080-082-240300-
TEXAS TECH WEST TEXAS MESONET/FAR WEST/SOUTHWEST MOUNTAINS/TRANS PECOS

CITY           SKY/WX    TMP DP  RH WIND       PRES   REMARKS
PRSMN GAP BBNP   N/A     72  27  18 S6        29.80S
GUADLPE MTN NP   N/A     56  21  25 SW10      29.87F
$$




USA.gov is the U.S. government's official web portal to all federal, state and local government web resources and services.